Вернуться в каталог

STARLINK-4770

АктивенСвязьVLEO
NORAD 53849·PAYLOAD·🇺🇸 United States

Запущен Sep 19, 2022 с Cape Canaveral Space Force Station

Loading…

Ближайшие Пролёты (ближайшие 24 часа)

TLE

СвежийSource: CelesTrak SupGP

Эпоха: Sep 14, 2026, 20:17 UTC

1 53849C 22114AH  26257.84562500 -.00030965  00000+0 -99578-3 0  2573
2 53849  53.1583 150.3271 0001439  88.6792  56.6585 15.31716495    10

Отслеживайте STARLINK-4770 в реальном времени с AllMySat

Download on the App Store